Weather Roundup
Issued by NWS

Home | Current Version | Previous Version | Graphics & Text | Print | Product List | Glossary Off
Versions: 1 2 3 4 5 6 7 8 9 10 11 12 13 14 15 16 17 18 19 20 21 22 23 24 25 26 27 28 29 30 31 32 33 34 35 36 37 38 39 40 41 42 43 44 45 46 47 48 49 50

000
NZUS93 KARX 222210
HRRWXR

CURRENT HOURLY OBSERVATIONS ACROSS
MUCH OF THE UPPER MISSISSIPPI VALLEY
NATIONAL WEATHER SERVICE LA CROSSE WI
500 PM CDT FRI SEP 22 2017


...SOUTHEAST MINNESOTA...


CITY           SKY/WX    TMP DP  RH WIND       PRES   REMARKS
ROCHESTER      SUNNY     89  67  47 S21G30    29.89S HX  92
ROCHESTER/MAYO FAIR      90  64  40 S12G23    29.88S HX  91
WINONA         SUNNY     95  64  36 S5        29.87S HX  97
AUSTIN         SUNNY     90  64  43 S20       29.87F HX  91
ALBERT LEA     SUNNY     93  66  40 S13G21    29.85S HX  96
DODGE CENTER   SUNNY     90  63  40 S21G28    29.87S HX  90
PRESTON        SUNNY     89  63  41 S17G25    29.91S
OWATONNA       SUNNY     91  70  49 S18       29.83S HX  97
FARIBAULT      SUNNY     90  70  51 S14G26    29.82S HX  95
$$

...ELSEWHERE IN MINNESOTA...


CITY           SKY/WX    TMP DP  RH WIND       PRES   REMARKS
MINNEAPOLIS    MOSUNNY   94  70  45 S20       29.79S HX 100
INTNL FALLS    MOSUNNY   76  67  73 E9        29.76F
DULUTH         MOSUNNY   77  71  82 S8        29.83S
RED WING       SUNNY     93  61  33 S14G21    29.82R HX  93
REDWOOD FALLS  LGT RAIN  94  68  42 S26G36    29.71F HX  98
MANKATO        SUNNY     91  71  51 S17G29    29.79R HX  97
WORTHINGTON    SUNNY     90  70  51 S18G32    29.76F HX  95
FAIRMONT       SUNNY     92  70  48 S24G30    29.79S HX  97
$$

...SOUTHWEST WISCONSIN...


CITY           SKY/WX    TMP DP  RH WIND       PRES   REMARKS
LA CROSSE      SUNNY     94  67  41 S18G29    29.89R HX  97
PRAIRIE DU CHI SUNNY     92  62  36 SE10      29.93S HX  92
BOSCOBEL       SUNNY     93  66  40 S10G18    29.95S HX  96
LONE ROCK      SUNNY     91  67  44 S10G20    29.96S HX  94
PLATTEVILLE    SUNNY     90  67  46 S14G21    30.00R HX  93
FORT MC COY    SUNNY     90  66  45 S13G20    29.93R HX  92
CAMP DOUGLAS   SUNNY     90  67  47 S14G23    29.95S HX  93
MAUSTON-NEW LI CLEAR     90  67  47 S10G18    29.95S HX  93
VIROQUA        FAIR      88  66  47 S13G20    29.96S HX  91
WIS DELLS      NOT AVBL
$$

...ELSEWHERE IN WISCONSIN...


CITY           SKY/WX    TMP DP  RH WIND       PRES   REMARKS
MILWAUKEE      MOSUNNY   88  68  51 SE13      30.01S HX  91
MADISON        MOSUNNY   90  64  42 S13       29.99S HX  91
GREEN BAY      MOSUNNY   83  69  62 MISG      30.02R
EAU CLAIRE     SUNNY     91  65  41 S13G24    29.87S HX  93
BLACK RVR FLS  FAIR      92  60  34 S9G20     29.91S HX  92
MEDFORD        SUNNY     85  66  53 S12       29.96S
WAUSAU         SUNNY     82  68  62 E10       29.97S
WIS RAPIDS     SUNNY     90  66  45 S12G22    29.97S HX  92
MARSHFIELD     SUNNY     88  64  44 S12       29.96R
RICE LAKE      SUNNY     90  65  44 SE10      29.88S HX  92
$$

...NORTHEAST IOWA...


CITY           SKY/WX    TMP DP  RH WIND       PRES   REMARKS
WATERLOO       SUNNY     91  64  40 S21       29.90S HX  92
DUBUQUE        SUNNY     87  67  51 S15G23    29.99S HX  90
DECORAH        SUNNY     91  64  40 S15G23    29.92S HX  93
MASON CITY     MOSUNNY   91  66  43 S24       29.89S HX  93
CHARLES CITY   SUNNY     91  66  43 S12G25    29.91S HX  94
OELWEIN        SUNNY     91  64  40 S20       29.94S HX  93
$$

...ELSEWHERE IN IOWA...


CITY           SKY/WX    TMP DP  RH WIND       PRES   REMARKS
DES MOINES     MOSUNNY   91  68  46 S16G24    29.89S HX  95
IOWA CITY      SUNNY     93  67  42 S13       29.96F HX  96
FORT DODGE     SUNNY     92  66  42 S18G30    29.86R HX  94
MARSHALLTOWN   SUNNY     90  67  46 S21G29    29.91S HX  93
CEDAR RAPIDS   SUNNY     90  66  45 S17G23    29.95S HX  92
$$

...NORTHERN ILLINOIS...


CITY           SKY/WX    TMP DP  RH WIND       PRES   REMARKS
CHICAGO-OHARE  MOSUNNY   93  63  36 S9        30.01S HX  94
CHICAGO-MIDWAY MOSUNNY   94  64  37 S10       30.02R HX  95
MOLINE         SUNNY     92  64  39 S9        29.97S HX  93
ROCKFORD       SUNNY     91  62  37 SW8       30.01F HX  91
PEORIA         SUNNY     93  64  38 SW7       29.99F HX  94
$$

NOTE: "FAIR" INDICATES FEW OR NO CLOUDS BELOW 12,000 FEET WITH NO
SIGNIFICANT WEATHER AND/OR OBSTRUCTIONS TO VISIBILITY. WIND
SPEEDS ARE IN MILES-PER-HOUR.




USA.gov is the U.S. government's official web portal to all federal, state and local government web resources and services.